Regional Weather Roundup
Issued by NWS

Home | Current Version | Previous Version | Graphics & Text | Print | Product List | Glossary On
Versions: 1 2 3 4 5 6 7 8 9 10 11 12 13 14 15 16 17 18 19 20 21 22 23 24 25 26 27 28 29 30 31 32 33 34 35 36 37 38 39 40 41 42 43 44 45 46 47 48 49 50
000
ASUS44 KMEG 261210
RWRTN
TENNESSEE HOURLY STATE WEATHER ROUNDUP
NATIONAL WEATHER SERVICE MEMPHIS TN
700 AM CDT TUE MAY 26 2015

TNZ002-004-019-021-049-052-054-088>092-261300-
WEST TENNESSEE

CITY           SKY/WX    TMP DP  RH WIND       PRES   REMARKS
MEMPHIS INTL   LGT RAIN  67  63  87 S13       29.98R
NWS MEMPHIS      N/A     68 N/A N/A MISG        N/A
JACKSON        CLOUDY    71  66  84 S14G21    29.98S
DYERSBURG      CLOUDY    72  55  56 S9G16     29.95R
PARIS          PTSUNNY   66  64  94 SE13      30.00F
LEXINGTON      CLOUDY    70  64  83 SE10      30.03S
$$

TNZ008-025-027-028-033-062-065-066-261300-
NORTH MIDDLE TENNESSEE

CITY           SKY/WX    TMP DP  RH WIND       PRES   REMARKS
NASHVILLE      MOSUNNY   69  65  86 S8        30.10R
CLARKSVILLE    MOSUNNY   68  64  87 S8G18     30.05S
SMYRNA         MOSUNNY   68  65  90 S6        30.12R
COOKEVILLE     SUNNY     72  68  88 S8        30.15R
CROSSVILLE     CLOUDY    70  65  84 S13       30.22R
$$

TNZ061-075-076-078-094-096-097-261300-
SOUTH MIDDLE TENNESSEE

CITY           SKY/WX    TMP DP  RH WIND       PRES   REMARKS
FAYETTEVILLE   MOSUNNY  N/A N/A N/A MISG      30.13S
TULLAHOMA      PTSUNNY   68  66  94 SE8       30.16R
WINCHESTER     CLOUDY    72  68  88 S8        30.16R
MCMINNVILLE    SUNNY     73  72  94 VRB6      30.16R
COLUMBIA       SUNNY     70  66  88 S8        30.08R
SHELBYVILLE    SUNNY     70  68  94 SE10      30.13S
$$

TNZ017-018-042-046-047-261300-
NORTHEAST TENNESSEE

CITY           SKY/WX    TMP DP  RH WIND       PRES   REMARKS
TRI CITIES     PTSUNNY   68  65  90 E3        30.26R
ELIZABETHTON   CLOUDY    64  63  94 E3        30.27S
$$

TNZ012-013-036-069-073-074-261300-
CENTRAL EAST TENNESSEE

CITY           SKY/WX    TMP DP  RH WIND       PRES   REMARKS
KNOXVILLE      PTSUNNY   68  65  90 NE7       30.21R
OAK RIDGE      CLOUDY    68  66  93 CALM      30.23R
GATLINBURG     MOSUNNY   66  64  94 CALM      30.22R
MORRISTOWN     MOSUNNY   70  64  83 E3        30.24S
$$

TNZ083-085-099-261300-
SOUTHEAST TENNESSEE

CITY           SKY/WX    TMP DP  RH WIND       PRES   REMARKS
CHATTANOOGA    DRIZZLE   70  69  97 VRB3      30.19R FOG
$$

SKY/WX REPORTED AS FAIR MEANS FEW OR NO CLOUDS BELOW
12 THOUSAND FEET.




USA.gov is the U.S. government's official web portal to all federal, state and local government web resources and services.